| time (UTC) | temp F | wind direction | speed knots | gust knots | rain 1hr in | rain 24hr in | rain mn in | humidity % | barometer mb |
| 20260503203949 | 79 | 137 | 0.9 | 2.6 | 0.00 | 0.01 | 0.00 | 44 | 1011.4 |
| 20260503203849 | 79 | 315 | 0.0 | 1.7 | 0.00 | 0.01 | 0.00 | 43 | 1011.4 |
| 20260503203749 | 79 | 257 | 0.9 | 1.7 | 0.00 | 0.01 | 0.00 | 43 | 1011.4 |
| 20260503203449 | 79 | 0 | 0.0 | 1.7 | 0.00 | 0.01 | 0.00 | 43 | 1011.5 |
| 20260503203349 | 79 | 300 | 0.9 | 2.6 | 0.00 | 0.01 | 0.00 | 43 | 1011.5 |
| 20260503203049 | 79 | 298 | 0.9 | 1.7 | 0.00 | 0.01 | 0.00 | 43 | 1011.5 |
| 20260503202949 | 79 | 324 | 1.7 | 3.5 | 0.00 | 0.01 | 0.00 | 44 | 1011.5 |
| 20260503202849 | 79 | 325 | 0.0 | 1.7 | 0.00 | 0.01 | 0.00 | 45 | 1011.6 |
| 20260503202749 | 78 | 246 | 0.9 | 1.7 | 0.00 | 0.01 | 0.00 | 44 | 1011.6 |
| 20260503202449 | 78 | 339 | 0.9 | 2.6 | 0.00 | 0.01 | 0.00 | 44 | 1011.6 |
| 20260503202349 | 78 | 286 | 0.0 | 1.7 | 0.00 | 0.01 | 0.00 | 44 | 1011.6 |
| 20260503202249 | 78 | 136 | 0.0 | 1.7 | 0.00 | 0.01 | 0.00 | 45 | 1011.6 |
| 20260503201950 | 78 | 91 | 1.7 | 4.3 | 0.00 | 0.01 | 0.00 | 46 | 1011.7 |
| 20260503201849 | 78 | 65 | 0.9 | 1.7 | 0.00 | 0.01 | 0.00 | 45 | 1011.7 |
| 20260503201749 | 78 | 3 | 0.0 | 0.9 | 0.00 | 0.01 | 0.00 | 46 | 1011.7 |
| 20260503201649 | 78 | 99 | 0.9 | 2.6 | 0.00 | 0.01 | 0.00 | 46 | 1011.7 |
| 20260503201350 | 78 | 4 | 0.9 | 3.5 | 0.00 | 0.01 | 0.00 | 45 | 1011.7 |
| 20260503201249 | 78 | 0 | 0.0 | 0.0 | 0.00 | 0.01 | 0.00 | 46 | 1011.7 |
| 20260503201149 | 78 | 251 | 0.0 | 1.7 | 0.00 | 0.01 | 0.00 | 46 | 1011.7 |
| 20260503200850 | 78 | 28 | 0.9 | 2.6 | 0.00 | 0.01 | 0.00 | 45 | 1011.8 |
| 20260503200750 | 78 | 31 | 0.9 | 1.7 | 0.00 | 0.01 | 0.00 | 46 | 1011.8 |
| 20260503200650 | 78 | 278 | 0.9 | 2.6 | 0.00 | 0.01 | 0.00 | 46 | 1011.8 |
| 20260503200549 | 78 | 13 | 1.7 | 4.3 | 0.00 | 0.01 | 0.00 | 46 | 1011.8 |
| 20260503200450 | 78 | 0 | 1.7 | 4.3 | 0.00 | 0.01 | 0.00 | 46 | 1011.8 |
| 20260503200350 | 78 | 22 | 1.7 | 2.6 | 0.00 | 0.01 | 0.00 | 46 | 1011.8 |
| 20260503200250 | 78 | 318 | 1.7 | 3.5 | 0.00 | 0.01 | 0.00 | 46 | 1011.9 |
| 20260503200150 | 78 | 240 | 1.7 | 3.5 | 0.00 | 0.01 | 0.00 | 46 | 1011.8 |
| 20260503200049 | 77 | 219 | 2.6 | 3.5 | 0.00 | 0.01 | 0.00 | 47 | 1011.8 |
| 20260503195950 | 77 | 206 | 1.7 | 3.5 | 0.00 | 0.01 | 0.00 | 47 | 1011.9 |
| 20260503195850 | 77 | 208 | 0.9 | 2.6 | 0.00 | 0.01 | 0.00 | 47 | 1011.9 |
| 20260503195750 | 77 | 19 | 0.9 | 2.6 | 0.00 | 0.01 | 0.00 | 47 | 1011.9 |
| 20260503195650 | 77 | 293 | 0.0 | 1.7 | 0.00 | 0.01 | 0.00 | 46 | 1012.0 |
| 20260503195550 | 77 | 286 | 0.9 | 2.6 | 0.00 | 0.01 | 0.00 | 46 | 1011.9 |
| 20260503195450 | 77 | 282 | 0.9 | 2.6 | 0.00 | 0.01 | 0.00 | 47 | 1012.0 |
| 20260503195350 | 77 | 58 | 0.0 | 1.7 | 0.00 | 0.01 | 0.00 | 47 | 1012.0 |
| 20260503195250 | 77 | 342 | 1.7 | 3.5 | 0.00 | 0.01 | 0.00 | 46 | 1012.0 |
| 20260503195150 | 77 | 1 | 0.9 | 2.6 | 0.00 | 0.01 | 0.00 | 47 | 1012.0 |
| 20260503195050 | 77 | 113 | 0.0 | 1.7 | 0.00 | 0.01 | 0.00 | 48 | 1012.0 |
| 20260503194950 | 77 | 45 | 0.0 | 2.6 | 0.00 | 0.01 | 0.00 | 47 | 1012.0 |
| 20260503194850 | 77 | 350 | 0.0 | 0.0 | 0.00 | 0.01 | 0.00 | 47 | 1012.0 |
| 20260503194750 | 77 | 339 | 0.9 | 1.7 | 0.00 | 0.01 | 0.00 | 48 | 1012.1 |
| 20260503194250 | 77 | 310 | 0.9 | 4.3 | 0.00 | 0.01 | 0.00 | 48 | 1012.1 |
| 20260503193950 | 76 | 286 | 0.9 | 1.7 | 0.00 | 0.01 | 0.00 | 47 | 1012.1 |
| 20260503193850 | 76 | 322 | 1.7 | 3.5 | 0.00 | 0.01 | 0.00 | 48 | 1012.2 |
| 20260503193750 | 76 | 2 | 0.9 | 2.6 | 0.00 | 0.01 | 0.00 | 48 | 1012.2 |
| 20260503193650 | 76 | 237 | 0.0 | 1.7 | 0.00 | 0.01 | 0.00 | 47 | 1012.2 |
| 20260503193551 | 76 | 316 | 0.9 | 2.6 | 0.00 | 0.01 | 0.00 | 47 | 1012.2 |
| 20260503193450 | 76 | 350 | 1.7 | 4.3 | 0.00 | 0.01 | 0.00 | 48 | 1012.2 |
| 20260503193350 | 76 | 336 | 0.9 | 2.6 | 0.00 | 0.01 | 0.00 | 48 | 1012.2 |
| 20260503193250 | 76 | 233 | 0.9 | 2.6 | 0.00 | 0.01 | 0.00 | 48 | 1012.3 |
| 20260503193150 | 76 | 251 | 0.9 | 1.7 | 0.00 | 0.01 | 0.00 | 48 | 1012.3 |
| 20260503193050 | 76 | 299 | 0.0 | 1.7 | 0.00 | 0.01 | 0.00 | 48 | 1012.3 |
| 20260503192950 | 76 | 314 | 0.0 | 0.9 | 0.00 | 0.01 | 0.00 | 48 | 1012.3 |
| 20260503192850 | 76 | 0 | 0.9 | 2.6 | 0.00 | 0.01 | 0.00 | 48 | 1012.3 |
| 20260503192550 | 76 | 21 | 0.0 | 0.9 | 0.00 | 0.01 | 0.00 | 48 | 1012.4 |
| 20260503192450 | 76 | 0 | 0.0 | 0.0 | 0.00 | 0.01 | 0.00 | 49 | 1012.4 |
| 20260503192350 | 76 | 0 | 0.9 | 1.7 | 0.00 | 0.01 | 0.00 | 48 | 1012.4 |
| 20260503191850 | 76 | 330 | 0.0 | 1.7 | 0.00 | 0.01 | 0.00 | 50 | 1012.5 |
| 20260503191750 | 76 | 303 | 0.0 | 0.9 | 0.00 | 0.01 | 0.00 | 50 | 1012.5 |
| 20260503191650 | 76 | 293 | 0.9 | 2.6 | 0.00 | 0.01 | 0.00 | 50 | 1012.5 |
| 20260503191551 | 76 | 287 | 0.9 | 3.5 | 0.00 | 0.01 | 0.00 | 49 | 1012.5 |
| 20260503191251 | 76 | 337 | 0.0 | 1.7 | 0.00 | 0.01 | 0.00 | 50 | 1012.6 |
| 20260503191151 | 76 | 1 | 0.9 | 2.6 | 0.00 | 0.01 | 0.00 | 50 | 1012.6 |
| 20260503191050 | 76 | 125 | 0.0 | 2.6 | 0.00 | 0.01 | 0.00 | 50 | 1012.6 |
| 20260503190950 | 76 | 320 | 0.9 | 4.3 | 0.00 | 0.01 | 0.00 | 51 | 1012.7 |
| 20260503190851 | 76 | 334 | 0.9 | 2.6 | 0.00 | 0.01 | 0.00 | 51 | 1012.6 |
| 20260503190551 | 76 | 217 | 0.0 | 0.9 | 0.00 | 0.01 | 0.00 | 51 | 1012.7 |
| 20260503190451 | 76 | 117 | 1.7 | 3.5 | 0.00 | 0.01 | 0.00 | 51 | 1012.7 |
| 20260503190351 | 76 | 96 | 1.7 | 3.5 | 0.00 | 0.01 | 0.00 | 51 | 1012.7 |
| 20260503190251 | 76 | 108 | 1.7 | 3.5 | 0.00 | 0.01 | 0.00 | 50 | 1012.7 |
| 20260503185951 | 76 | 324 | 0.0 | 1.7 | 0.00 | 0.01 | 0.00 | 51 | 1012.8 |
| 20260503185851 | 76 | 107 | 0.9 | 2.6 | 0.00 | 0.01 | 0.00 | 51 | 1012.8 |
| 20260503185351 | 76 | 304 | 0.0 | 1.7 | 0.00 | 0.01 | 0.00 | 51 | 1012.8 |
| 20260503185251 | 76 | 333 | 0.0 | 1.7 | 0.00 | 0.01 | 0.00 | 52 | 1012.9 |
| 20260503185151 | 76 | 6 | 0.9 | 2.6 | 0.00 | 0.01 | 0.00 | 53 | 1012.9 |
| 20260503185051 | 76 | 316 | 0.9 | 1.7 | 0.00 | 0.01 | 0.00 | 52 | 1012.9 |
| 20260503184951 | 76 | 116 | 0.0 | 2.6 | 0.00 | 0.01 | 0.00 | 53 | 1012.8 |
| 20260503184851 | 76 | 111 | 0.9 | 2.6 | 0.00 | 0.01 | 0.00 | 52 | 1012.9 |
| 20260503184751 | 76 | 22 | 0.9 | 2.6 | 0.00 | 0.01 | 0.00 | 52 | 1012.9 |
| 20260503184651 | 75 | 82 | 0.0 | 1.7 | 0.00 | 0.01 | 0.00 | 53 | 1012.9 |
| 20260503184551 | 75 | 289 | 0.9 | 1.7 | 0.00 | 0.01 | 0.00 | 53 | 1012.9 |
| 20260503184251 | 75 | 74 | 0.0 | 1.7 | 0.00 | 0.01 | 0.00 | 54 | 1012.9 |
| 20260503184151 | 75 | 0 | 0.0 | 0.0 | 0.00 | 0.01 | 0.00 | 54 | 1012.9 |
| 20260503184051 | 75 | 339 | 0.0 | 0.9 | 0.00 | 0.01 | 0.00 | 54 | 1012.9 |
| 20260503183951 | 75 | 0 | 0.9 | 1.7 | 0.00 | 0.01 | 0.00 | 54 | 1013.0 |
| 20260503183851 | 75 | 220 | 0.9 | 2.6 | 0.00 | 0.01 | 0.00 | 54 | 1013.0 |
| 20260503183751 | 75 | 227 | 0.9 | 3.5 | 0.00 | 0.01 | 0.00 | 53 | 1013.0 |
| 20260503183651 | 75 | 4 | 0.9 | 3.5 | 0.00 | 0.01 | 0.00 | 55 | 1013.0 |
| 20260503183551 | 75 | 324 | 0.9 | 2.6 | 0.00 | 0.01 | 0.00 | 53 | 1013.0 |
| 20260503183451 | 75 | 296 | 0.9 | 2.6 | 0.00 | 0.01 | 0.00 | 53 | 1013.0 |
| 20260503183351 | 75 | 337 | 0.9 | 2.6 | 0.00 | 0.01 | 0.00 | 53 | 1013.0 |
| 20260503183051 | 75 | 221 | 0.0 | 2.6 | 0.00 | 0.01 | 0.00 | 53 | 1013.0 |
| 20260503182951 | 74 | 323 | 0.0 | 1.7 | 0.00 | 0.01 | 0.00 | 53 | 1013.0 |
| 20260503182852 | 74 | 330 | 0.9 | 2.6 | 0.00 | 0.01 | 0.00 | 54 | 1013.1 |
| 20260503182751 | 74 | 353 | 0.9 | 1.7 | 0.00 | 0.01 | 0.00 | 55 | 1013.1 |
| 20260503182651 | 74 | 337 | 0.9 | 2.6 | 0.00 | 0.01 | 0.00 | 55 | 1013.1 |
| 20260503182551 | 74 | 0 | 0.0 | 0.0 | 0.00 | 0.01 | 0.00 | 54 | 1013.1 |
| 20260503182451 | 74 | 0 | 0.0 | 0.0 | 0.00 | 0.01 | 0.00 | 55 | 1013.1 |
| 20260503182351 | 74 | 0 | 0.0 | 0.0 | 0.00 | 0.01 | 0.00 | 56 | 1013.1 |
| 20260503182251 | 74 | 263 | 0.0 | 0.9 | 0.00 | 0.01 | 0.00 | 55 | 1013.1 |
| 20260503181951 | 74 | 227 | 1.7 | 2.6 | 0.00 | 0.01 | 0.00 | 55 | 1013.1 |
| 20260503181851 | 74 | 206 | 0.9 | 2.6 | 0.00 | 0.01 | 0.00 | 54 | 1013.1 |
| 20260503181751 | 74 | 233 | 0.9 | 1.7 | 0.00 | 0.01 | 0.00 | 54 | 1013.1 |
| 20260503181651 | 74 | 110 | 0.9 | 3.5 | 0.00 | 0.01 | 0.00 | 55 | 1013.1 |
| 20260503180952 | 73 | 349 | 0.0 | 1.7 | 0.00 | 0.01 | 0.00 | 56 | 1013.2 |
| 20260503180852 | 73 | 300 | 0.9 | 2.6 | 0.00 | 0.01 | 0.00 | 55 | 1013.1 |
| 20260503180752 | 73 | 285 | 0.9 | 1.7 | 0.00 | 0.01 | 0.00 | 55 | 1013.1 |
| 20260503180452 | 73 | 36 | 1.7 | 4.3 | 0.00 | 0.01 | 0.00 | 57 | 1013.2 |
| 20260503180352 | 73 | 292 | 0.0 | 0.0 | 0.00 | 0.01 | 0.00 | 56 | 1013.2 |
| 20260503180252 | 73 | 260 | 0.0 | 1.7 | 0.00 | 0.01 | 0.00 | 55 | 1013.2 |
| 20260503180152 | 73 | 243 | 1.7 | 2.6 | 0.00 | 0.01 | 0.00 | 55 | 1013.2 |
| 20260503175852 | 73 | 264 | 0.9 | 1.7 | 0.00 | 0.01 | 0.00 | 54 | 1013.2 |
| 20260503175752 | 73 | 221 | 0.0 | 1.7 | 0.00 | 0.01 | 0.00 | 53 | 1013.2 |
| 20260503175652 | 73 | 266 | 0.9 | 1.7 | 0.00 | 0.01 | 0.00 | 53 | 1013.2 |
| 20260503175552 | 73 | 310 | 0.0 | 1.7 | 0.00 | 0.01 | 0.00 | 54 | 1013.2 |
| 20260503175452 | 73 | 227 | 0.0 | 1.7 | 0.00 | 0.01 | 0.00 | 53 | 1013.2 |
| 20260503174952 | 73 | 289 | 0.9 | 1.7 | 0.00 | 0.01 | 0.00 | 55 | 1013.3 |
| 20260503174852 | 73 | 40 | 1.7 | 3.5 | 0.00 | 0.01 | 0.00 | 54 | 1013.3 |
| 20260503174752 | 73 | 23 | 1.7 | 3.5 | 0.00 | 0.01 | 0.00 | 54 | 1013.3 |
| 20260503174652 | 72 | 31 | 0.9 | 1.7 | 0.00 | 0.01 | 0.00 | 55 | 1013.3 |
| 20260503174552 | 72 | 84 | 0.0 | 1.7 | 0.00 | 0.01 | 0.00 | 56 | 1013.3 |
| 20260503174452 | 72 | 338 | 0.0 | 1.7 | 0.00 | 0.01 | 0.00 | 55 | 1013.3 |
| 20260503174353 | 72 | 317 | 1.7 | 3.5 | 0.00 | 0.01 | 0.00 | 55 | 1013.3 |
| 20260503174052 | 72 | 247 | 0.9 | 2.6 | 0.00 | 0.01 | 0.00 | 55 | 1013.3 |
| 20260503173952 | 72 | 277 | 0.9 | 2.6 | 0.00 | 0.01 | 0.00 | 55 | 1013.3 |
| 20260503173852 | 72 | 217 | 0.0 | 1.7 | 0.00 | 0.01 | 0.00 | 55 | 1013.3 |
| 20260503173752 | 72 | 0 | 0.0 | 0.0 | 0.00 | 0.01 | 0.00 | 56 | 1013.3 |
| 20260503173652 | 72 | 224 | 0.0 | 0.0 | 0.00 | 0.01 | 0.00 | 56 | 1013.3 |
| 20260503173552 | 72 | 229 | 0.0 | 0.0 | 0.00 | 0.01 | 0.00 | 56 | 1013.3 |
| 20260503173452 | 72 | 253 | 0.9 | 2.6 | 0.00 | 0.01 | 0.00 | 55 | 1013.4 |
| 20260503173352 | 73 | 304 | 1.7 | 3.5 | 0.00 | 0.01 | 0.00 | 54 | 1013.4 |
| 20260503173252 | 73 | 286 | 1.7 | 3.5 | 0.00 | 0.01 | 0.00 | 55 | 1013.4 |
| 20260503172952 | 72 | 354 | 0.9 | 2.6 | 0.00 | 0.01 | 0.00 | 55 | 1013.4 |
| 20260503172653 | 72 | 311 | 0.9 | 2.6 | 0.00 | 0.01 | 0.00 | 55 | 1013.5 |
| 20260503172552 | 72 | 242 | 0.0 | 1.7 | 0.00 | 0.01 | 0.00 | 55 | 1013.5 |
| 20260503172453 | 72 | 149 | 0.0 | 1.7 | 0.00 | 0.01 | 0.00 | 55 | 1013.5 |
| 20260503172352 | 72 | 149 | 0.9 | 1.7 | 0.00 | 0.01 | 0.00 | 55 | 1013.5 |
| 20260503172253 | 72 | 34 | 1.7 | 2.6 | 0.00 | 0.01 | 0.00 | 55 | 1013.5 |
| 20260503172153 | 72 | 303 | 0.0 | 0.9 | 0.00 | 0.01 | 0.00 | 55 | 1013.5 |
| 20260503172052 | 72 | 296 | 0.9 | 1.7 | 0.00 | 0.01 | 0.00 | 55 | 1013.5 |
| 20260503171953 | 72 | 268 | 0.9 | 2.6 | 0.00 | 0.01 | 0.00 | 55 | 1013.5 |
| 20260503171853 | 72 | 338 | 0.0 | 1.7 | 0.00 | 0.01 | 0.00 | 55 | 1013.5 |
| 20260503171752 | 71 | 307 | 0.0 | 1.7 | 0.00 | 0.01 | 0.00 | 54 | 1013.5 |
| 20260503171653 | 71 | 270 | 0.0 | 0.9 | 0.00 | 0.01 | 0.00 | 53 | 1013.5 |
| 20260503171553 | 71 | 23 | 0.9 | 3.5 | 0.00 | 0.01 | 0.00 | 54 | 1013.5 |
| 20260503171452 | 71 | 0 | 0.0 | 0.0 | 0.00 | 0.01 | 0.00 | 54 | 1013.5 |
| 20260503171352 | 71 | 250 | 0.0 | 1.7 | 0.00 | 0.01 | 0.00 | 55 | 1013.5 |
| 20260503171253 | 71 | 344 | 0.9 | 1.7 | 0.00 | 0.01 | 0.00 | 55 | 1013.5 |
| 20260503171153 | 71 | 325 | 1.7 | 4.3 | 0.00 | 0.01 | 0.00 | 54 | 1013.5 |
| 20260503171053 | 71 | 3 | 1.7 | 2.6 | 0.00 | 0.01 | 0.00 | 54 | 1013.5 |
| 20260503170952 | 71 | 127 | 2.6 | 5.2 | 0.00 | 0.01 | 0.00 | 53 | 1013.5 |
| 20260503170853 | 71 | 101 | 0.9 | 1.7 | 0.00 | 0.01 | 0.00 | 55 | 1013.5 |
| 20260503170753 | 71 | 102 | 0.9 | 2.6 | 0.00 | 0.01 | 0.00 | 55 | 1013.5 |
| 20260503170653 | 71 | 231 | 0.9 | 2.6 | 0.00 | 0.01 | 0.00 | 53 | 1013.5 |
| 20260503170553 | 71 | 256 | 1.7 | 2.6 | 0.00 | 0.01 | 0.00 | 52 | 1013.5 |
| 20260503170453 | 71 | 265 | 0.0 | 0.0 | 0.00 | 0.01 | 0.00 | 52 | 1013.5 |
| 20260503170353 | 71 | 336 | 0.9 | 1.7 | 0.00 | 0.01 | 0.00 | 54 | 1013.5 |
| 20260503170253 | 71 | 216 | 0.0 | 1.7 | 0.00 | 0.01 | 0.00 | 54 | 1013.5 |
| 20260503170153 | 71 | 0 | 0.0 | 0.0 | 0.00 | 0.01 | 0.00 | 55 | 1013.5 |
| 20260503160154 | 68 | 26 | 0.0 | 1.7 | 0.00 | 0.01 | 0.00 | 59 | 1013.8 |
| 20260503150955 | 63 | 0 | 0.0 | 0.0 | 0.00 | 0.01 | 0.00 | 74 | 1014.0 |
| 20260503150655 | 63 | 244 | 0.0 | 0.9 | 0.00 | 0.01 | 0.00 | 72 | 1014.0 |
| 20260503150555 | 63 | 237 | 0.0 | 0.9 | 0.00 | 0.01 | 0.00 | 72 | 1014.0 |
| 20260503150255 | 63 | 8 | 0.9 | 1.7 | 0.00 | 0.01 | 0.00 | 68 | 1013.9 |
| 20260503150155 | 63 | 295 | 0.0 | 1.7 | 0.00 | 0.01 | 0.00 | 69 | 1013.9 |
| 20260503140156 | 51 | 0 | 0.0 | 0.0 | 0.00 | 0.01 | 0.00 | 97 | 1013.7 |
| 20260503131357 | 49 | 0 | 0.0 | 0.0 | 0.00 | 0.01 | 0.00 | 99 | 1013.7 |
| 20260503131257 | 49 | 0 | 0.0 | 0.0 | 0.00 | 0.01 | 0.00 | 99 | 1013.7 |
| 20260503130957 | 49 | 0 | 0.0 | 0.0 | 0.00 | 0.01 | 0.00 | 99 | 1013.8 |
| 20260503130857 | 49 | 0 | 0.0 | 0.0 | 0.00 | 0.01 | 0.00 | 99 | 1013.8 |
| 20260503130757 | 49 | 0 | 0.0 | 0.0 | 0.00 | 0.01 | 0.00 | 99 | 1013.8 |
| 20260503130657 | 49 | 0 | 0.0 | 0.0 | 0.00 | 0.01 | 0.00 | 99 | 1013.8 |
| 20260503130557 | 49 | 0 | 0.0 | 0.0 | 0.00 | 0.01 | 0.00 | 99 | 1013.8 |
| 20260503130457 | 49 | 0 | 0.0 | 0.0 | 0.00 | 0.01 | 0.00 | 99 | 1013.8 |
| 20260503130257 | 49 | 0 | 0.0 | 0.0 | 0.00 | 0.01 | 0.00 | 99 | 1013.8 |
| 20260503130157 | 49 | 0 | 0.0 | 0.0 | 0.00 | 0.01 | 0.00 | 99 | 1013.8 |
| 20260503120158 | 50 | 0 | 0.0 | 0.0 | 0.00 | 0.01 | 0.00 | 98 | 1013.9 |
| 20260503110559 | 51 | 0 | 0.0 | 0.0 | 0.00 | 0.01 | 0.00 | 97 | 1014.0 |
| 20260503110259 | 51 | 0 | 0.0 | 0.0 | 0.00 | 0.01 | 0.00 | 97 | 1014.0 |
| 20260503110159 | 51 | 0 | 0.0 | 0.0 | 0.00 | 0.01 | 0.00 | 97 | 1014.0 |
| 20260503090501 | 54 | 0 | 0.0 | 0.0 | 0.00 | 0.01 | 0.00 | 93 | 1014.2 |
| 20260503090401 | 54 | 0 | 0.0 | 0.0 | 0.00 | 0.01 | 0.00 | 93 | 1014.3 |
| 20260503081602 | 56 | 100 | 0.0 | 1.7 | 0.00 | 0.01 | 0.00 | 89 | 1014.4 |
| 20260503081502 | 56 | 45 | 0.0 | 1.7 | 0.00 | 0.01 | 0.00 | 89 | 1014.4 |
| 20260503081402 | 56 | 0 | 0.0 | 0.0 | 0.00 | 0.01 | 0.00 | 89 | 1014.4 |
| 20260503081302 | 56 | 50 | 0.0 | 0.0 | 0.00 | 0.01 | 0.00 | 89 | 1014.5 |
| 20260503081202 | 56 | 0 | 0.0 | 0.0 | 0.00 | 0.01 | 0.00 | 88 | 1014.5 |
| 20260503081102 | 57 | 340 | 0.0 | 0.0 | 0.00 | 0.01 | 0.00 | 88 | 1014.5 |
| 20260503080802 | 57 | 0 | 0.0 | 0.0 | 0.00 | 0.01 | 0.00 | 88 | 1014.5 |
| 20260503080702 | 57 | 0 | 0.0 | 0.0 | 0.00 | 0.01 | 0.00 | 88 | 1014.5 |
| 20260503080602 | 57 | 0 | 0.0 | 0.0 | 0.00 | 0.01 | 0.00 | 88 | 1014.4 |
| 20260503080302 | 57 | 0 | 0.0 | 0.0 | 0.00 | 0.01 | 0.00 | 87 | 1014.4 |
| 20260503080202 | 57 | 0 | 0.0 | 0.0 | 0.00 | 0.01 | 0.00 | 87 | 1014.4 |
| 20260503072902 | 57 | 115 | 0.0 | 0.9 | 0.00 | 0.01 | 0.00 | 87 | 1014.3 |
| 20260503072803 | 57 | 0 | 0.0 | 0.0 | 0.00 | 0.01 | 0.00 | 87 | 1014.3 |
| 20260503072703 | 57 | 61 | 0.0 | 1.7 | 0.00 | 0.01 | 0.00 | 87 | 1014.3 |
| 20260503072603 | 57 | 0 | 0.0 | 0.0 | 0.00 | 0.01 | 0.00 | 87 | 1014.3 |
| 20260503072305 | 57 | 0 | 0.0 | 0.0 | 0.00 | 0.01 | 0.00 | 86 | 1014.3 |
| 20260503072203 | 57 | 0 | 0.0 | 0.0 | 0.00 | 0.01 | 0.00 | 86 | 1014.3 |
| 20260503072103 | 57 | 0 | 0.0 | 0.0 | 0.00 | 0.01 | 0.00 | 86 | 1014.3 |
| 20260503072003 | 57 | 38 | 0.0 | 0.9 | 0.00 | 0.01 | 0.00 | 86 | 1014.3 |
| 20260503071903 | 57 | 0 | 0.0 | 0.0 | 0.00 | 0.01 | 0.00 | 86 | 1014.3 |
| 20260503071803 | 57 | 0 | 0.0 | 0.0 | 0.00 | 0.01 | 0.00 | 86 | 1014.3 |
| 20260503071703 | 57 | 0 | 0.0 | 0.0 | 0.00 | 0.01 | 0.00 | 86 | 1014.3 |
| 20260503071603 | 57 | 0 | 0.0 | 0.0 | 0.00 | 0.01 | 0.00 | 86 | 1014.3 |
| 20260503071503 | 57 | 0 | 0.0 | 0.0 | 0.00 | 0.01 | 0.00 | 86 | 1014.3 |
| 20260503071203 | 57 | 0 | 0.0 | 0.0 | 0.00 | 0.01 | 0.00 | 86 | 1014.3 |
| 20260503071103 | 57 | 0 | 0.0 | 0.0 | 0.00 | 0.01 | 0.00 | 86 | 1014.3 |
| 20260503071003 | 58 | 58 | 0.0 | 0.0 | 0.00 | 0.01 | 0.00 | 86 | 1014.3 |
| 20260503070903 | 58 | 55 | 0.0 | 0.0 | 0.00 | 0.01 | 0.00 | 86 | 1014.3 |
| 20260503070803 | 58 | 0 | 0.0 | 0.0 | 0.00 | 0.01 | 0.00 | 86 | 1014.3 |
| 20260503070703 | 58 | 0 | 0.0 | 0.0 | 0.00 | 0.01 | 0.00 | 86 | 1014.3 |
| 20260503070603 | 58 | 0 | 0.0 | 0.0 | 0.00 | 0.01 | 0.00 | 86 | 1014.3 |
| 20260503070503 | 58 | 0 | 0.0 | 0.0 | 0.00 | 0.01 | 0.00 | 86 | 1014.3 |
| 20260503070403 | 58 | 0 | 0.0 | 0.0 | 0.00 | 0.01 | 0.00 | 86 | 1014.3 |
| 20260503070306 | 58 | 0 | 0.0 | 0.0 | 0.00 | 0.01 | 0.00 | 85 | 1014.3 |
| 20260503070203 | 58 | 0 | 0.0 | 0.0 | 0.00 | 0.01 | 0.00 | 85 | 1014.3 |
| 20260503070103 | 58 | 0 | 0.0 | 0.0 | 0.00 | 0.01 | 0.00 | 86 | 1014.3 |
| 20260503060304 | 60 | 0 | 0.0 | 0.0 | 0.00 | 0.01 | 0.01 | 80 | 1014.1 |
| 20260503060204 | 60 | 0 | 0.0 | 0.0 | 0.00 | 0.01 | 0.01 | 80 | 1014.1 |
| 20260503060104 | 60 | 0 | 0.0 | 0.0 | 0.00 | 0.01 | 0.01 | 80 | 1014.1 |
| 20260503055104 | 61 | 0 | 0.0 | 0.0 | 0.00 | 0.01 | 0.01 | 79 | 1014.0 |
| 20260503055004 | 61 | 0 | 0.0 | 0.0 | 0.00 | 0.01 | 0.01 | 78 | 1014.0 |
| 20260503054904 | 61 | 0 | 0.0 | 0.0 | 0.00 | 0.01 | 0.01 | 78 | 1014.0 |
| 20260503054804 | 61 | 0 | 0.0 | 0.0 | 0.00 | 0.01 | 0.01 | 78 | 1014.0 |
| 20260503054704 | 61 | 0 | 0.0 | 0.0 | 0.00 | 0.01 | 0.01 | 78 | 1014.0 |
| 20260503054604 | 61 | 0 | 0.0 | 0.0 | 0.00 | 0.01 | 0.01 | 78 | 1014.0 |
| 20260503054505 | 61 | 0 | 0.0 | 0.0 | 0.00 | 0.01 | 0.01 | 78 | 1014.0 |
| 20260503054405 | 61 | 0 | 0.0 | 0.0 | 0.00 | 0.01 | 0.01 | 78 | 1014.0 |
| 20260503054305 | 61 | 0 | 0.0 | 0.0 | 0.00 | 0.01 | 0.01 | 78 | 1014.0 |
| 20260503054204 | 61 | 0 | 0.0 | 0.0 | 0.00 | 0.01 | 0.01 | 77 | 1014.0 |
| 20260503054105 | 61 | 0 | 0.0 | 0.0 | 0.00 | 0.01 | 0.01 | 77 | 1013.9 |
| 20260503054005 | 61 | 0 | 0.0 | 0.0 | 0.00 | 0.01 | 0.01 | 77 | 1013.9 |
| 20260503053905 | 62 | 0 | 0.0 | 0.0 | 0.00 | 0.01 | 0.01 | 76 | 1013.9 |
| 20260503053605 | 62 | 0 | 0.0 | 0.0 | 0.00 | 0.01 | 0.01 | 76 | 1013.9 |
| 20260503053505 | 62 | 0 | 0.0 | 0.0 | 0.00 | 0.01 | 0.01 | 75 | 1013.9 |
| 20260503053405 | 62 | 0 | 0.0 | 0.0 | 0.00 | 0.01 | 0.01 | 75 | 1013.9 |
| 20260503053305 | 62 | 0 | 0.0 | 0.0 | 0.00 | 0.01 | 0.01 | 75 | 1013.9 |
| 20260503053205 | 62 | 0 | 0.0 | 0.0 | 0.00 | 0.01 | 0.01 | 74 | 1013.9 |
| 20260503052905 | 62 | 0 | 0.0 | 0.0 | 0.00 | 0.01 | 0.01 | 74 | 1013.9 |
| 20260503052805 | 63 | 0 | 0.0 | 0.0 | 0.00 | 0.01 | 0.01 | 74 | 1013.9 |
| 20260503052705 | 63 | 0 | 0.0 | 0.0 | 0.00 | 0.01 | 0.01 | 73 | 1013.9 |
| 20260503052605 | 63 | 0 | 0.0 | 0.0 | 0.00 | 0.01 | 0.01 | 73 | 1013.9 |
| 20260503052505 | 63 | 0 | 0.0 | 0.0 | 0.00 | 0.01 | 0.01 | 73 | 1013.9 |
| 20260503052405 | 63 | 0 | 0.0 | 0.0 | 0.00 | 0.01 | 0.01 | 73 | 1013.9 |
| 20260503052305 | 63 | 0 | 0.0 | 0.0 | 0.00 | 0.01 | 0.01 | 72 | 1014.0 |
| 20260503052205 | 63 | 0 | 0.0 | 0.0 | 0.00 | 0.01 | 0.01 | 71 | 1014.0 |
| 20260503052105 | 63 | 0 | 0.0 | 0.0 | 0.00 | 0.01 | 0.01 | 71 | 1014.0 |
| 20260503052005 | 63 | 0 | 0.0 | 0.0 | 0.00 | 0.01 | 0.01 | 70 | 1014.0 |
| 20260503051705 | 64 | 0 | 0.0 | 0.0 | 0.00 | 0.01 | 0.01 | 67 | 1013.9 |
| 20260503051405 | 64 | 0 | 0.0 | 0.0 | 0.00 | 0.01 | 0.01 | 65 | 1013.9 |
| 20260503051305 | 64 | 0 | 0.0 | 0.0 | 0.00 | 0.01 | 0.01 | 65 | 1013.9 |
| 20260503051205 | 64 | 0 | 0.0 | 0.0 | 0.00 | 0.01 | 0.01 | 65 | 1013.9 |
| 20260503051105 | 64 | 0 | 0.0 | 0.0 | 0.00 | 0.01 | 0.01 | 65 | 1013.9 |
| 20260503051005 | 64 | 0 | 0.0 | 0.0 | 0.00 | 0.01 | 0.01 | 65 | 1013.9 |
| 20260503050905 | 64 | 0 | 0.0 | 0.0 | 0.00 | 0.01 | 0.01 | 64 | 1013.9 |
| 20260503050805 | 64 | 255 | 0.0 | 0.9 | 0.00 | 0.01 | 0.01 | 64 | 1013.9 |
| 20260503050705 | 64 | 0 | 0.0 | 0.0 | 0.00 | 0.01 | 0.01 | 64 | 1013.9 |
| 20260503050605 | 64 | 214 | 0.0 | 1.7 | 0.00 | 0.01 | 0.01 | 63 | 1013.8 |
| 20260503050505 | 64 | 0 | 0.0 | 0.0 | 0.00 | 0.01 | 0.01 | 63 | 1013.8 |
| 20260503050205 | 64 | 0 | 0.0 | 0.0 | 0.00 | 0.01 | 0.01 | 63 | 1013.8 |
| 20260503050105 | 64 | 0 | 0.0 | 0.0 | 0.00 | 0.01 | 0.01 | 63 | 1013.8 |
| 20260503050005 | 65 | 91 | 0.0 | 0.9 | 0.00 | 0.01 | 0.01 | 62 | 1013.8 |
| 20260503045905 | 65 | 17 | 0.0 | 0.9 | 0.00 | 0.01 | 0.01 | 62 | 1013.8 |
| 20260503045805 | 65 | 0 | 0.0 | 0.0 | 0.00 | 0.01 | 0.01 | 61 | 1013.8 |
| 20260503045505 | 65 | 0 | 0.0 | 0.0 | 0.00 | 0.01 | 0.01 | 60 | 1013.8 |
| 20260503045405 | 65 | 0 | 0.0 | 0.0 | 0.00 | 0.01 | 0.01 | 60 | 1013.8 |
| 20260503045305 | 65 | 0 | 0.0 | 0.0 | 0.00 | 0.01 | 0.01 | 60 | 1013.8 |
| 20260503045206 | 65 | 0 | 0.0 | 0.0 | 0.00 | 0.01 | 0.01 | 60 | 1013.8 |
| 20260503045105 | 65 | 0 | 0.0 | 0.0 | 0.00 | 0.01 | 0.01 | 60 | 1013.8 |
| 20260503045005 | 65 | 0 | 0.0 | 0.0 | 0.00 | 0.01 | 0.01 | 58 | 1013.7 |
| 20260503044905 | 66 | 0 | 0.0 | 0.0 | 0.00 | 0.01 | 0.01 | 59 | 1013.7 |
| 20260503044805 | 66 | 0 | 0.0 | 0.0 | 0.00 | 0.01 | 0.01 | 59 | 1013.7 |
| 20260503044506 | 66 | 0 | 0.0 | 0.0 | 0.00 | 0.01 | 0.01 | 57 | 1013.7 |
| 20260503044406 | 66 | 0 | 0.0 | 0.0 | 0.00 | 0.01 | 0.01 | 57 | 1013.7 |
| 20260503044306 | 66 | 0 | 0.0 | 0.0 | 0.00 | 0.01 | 0.01 | 57 | 1013.6 |
| 20260503043806 | 67 | 0 | 0.0 | 0.0 | 0.00 | 0.01 | 0.01 | 56 | 1013.6 |
| 20260503043706 | 67 | 0 | 0.0 | 0.0 | 0.00 | 0.01 | 0.01 | 56 | 1013.6 |
| 20260503043606 | 67 | 0 | 0.0 | 0.0 | 0.00 | 0.01 | 0.01 | 56 | 1013.6 |
| 20260503043506 | 67 | 0 | 0.0 | 0.0 | 0.00 | 0.01 | 0.01 | 55 | 1013.6 |
| 20260503043405 | 67 | 0 | 0.0 | 0.0 | 0.00 | 0.01 | 0.01 | 55 | 1013.5 |
| 20260503043306 | 67 | 183 | 0.0 | 0.9 | 0.00 | 0.01 | 0.01 | 54 | 1013.5 |
| 20260503043206 | 67 | 0 | 0.0 | 0.0 | 0.00 | 0.01 | 0.01 | 54 | 1013.5 |
| 20260503043106 | 67 | 0 | 0.0 | 0.0 | 0.00 | 0.01 | 0.01 | 54 | 1013.5 |
| 20260503042806 | 68 | 279 | 0.0 | 0.9 | 0.00 | 0.01 | 0.01 | 53 | 1013.5 |
| 20260503042506 | 68 | 282 | 0.0 | 1.7 | 0.00 | 0.01 | 0.01 | 53 | 1013.5 |
| 20260503042406 | 68 | 0 | 0.0 | 0.0 | 0.00 | 0.01 | 0.01 | 54 | 1013.5 |
| 20260503042106 | 68 | 0 | 0.0 | 0.0 | 0.00 | 0.01 | 0.01 | 54 | 1013.5 |
| 20260503042006 | 68 | 0 | 0.0 | 0.0 | 0.00 | 0.01 | 0.01 | 54 | 1013.5 |
| 20260503041506 | 68 | 0 | 0.0 | 0.0 | 0.00 | 0.01 | 0.01 | 54 | 1013.4 |
| 20260503041406 | 68 | 0 | 0.0 | 0.0 | 0.00 | 0.01 | 0.01 | 55 | 1013.4 |
| 20260503041306 | 68 | 0 | 0.0 | 0.0 | 0.00 | 0.01 | 0.01 | 54 | 1013.4 |
| 20260503041006 | 68 | 321 | 0.0 | 0.9 | 0.00 | 0.01 | 0.01 | 55 | 1013.4 |
| 20260503040906 | 68 | 0 | 0.0 | 0.0 | 0.00 | 0.01 | 0.01 | 55 | 1013.4 |
| 20260503040806 | 68 | 0 | 0.0 | 0.0 | 0.00 | 0.01 | 0.01 | 55 | 1013.3 |
| 20260503040706 | 68 | 324 | 0.9 | 2.6 | 0.00 | 0.01 | 0.01 | 55 | 1013.3 |
| 20260503040606 | 68 | 277 | 0.0 | 0.9 | 0.00 | 0.01 | 0.01 | 55 | 1013.3 |
| 20260503040506 | 68 | 0 | 0.0 | 0.0 | 0.00 | 0.01 | 0.01 | 55 | 1013.3 |
| 20260503040406 | 69 | 0 | 0.0 | 0.0 | 0.00 | 0.01 | 0.01 | 55 | 1013.3 |
| 20260503040306 | 69 | 351 | 0.0 | 0.0 | 0.00 | 0.01 | 0.01 | 55 | 1013.3 |
| 20260503040006 | 69 | 0 | 0.0 | 0.0 | 0.01 | 0.01 | 0.01 | 55 | 1013.2 |
| 20260503035706 | 69 | 310 | 0.0 | 0.9 | 0.01 | 0.01 | 0.01 | 55 | 1013.2 |
| 20260503035606 | 69 | 0 | 0.0 | 0.0 | 0.01 | 0.01 | 0.01 | 55 | 1013.1 |
| 20260503035506 | 69 | 304 | 0.0 | 1.7 | 0.01 | 0.01 | 0.01 | 55 | 1013.1 |
| 20260503035406 | 69 | 224 | 0.0 | 1.7 | 0.01 | 0.01 | 0.01 | 55 | 1013.1 |
| 20260503035106 | 69 | 316 | 0.0 | 0.9 | 0.01 | 0.01 | 0.01 | 56 | 1013.1 |
| 20260503035007 | 69 | 330 | 0.0 | 1.7 | 0.01 | 0.01 | 0.01 | 56 | 1013.0 |
| 20260503034907 | 69 | 0 | 0.0 | 0.0 | 0.01 | 0.01 | 0.01 | 56 | 1013.0 |
| 20260503034807 | 69 | 282 | 0.0 | 0.0 | 0.01 | 0.01 | 0.01 | 56 | 1013.0 |
| 20260503034707 | 69 | 0 | 0.0 | 0.0 | 0.01 | 0.01 | 0.01 | 55 | 1013.0 |
| 20260503034607 | 69 | 315 | 0.0 | 0.9 | 0.01 | 0.01 | 0.01 | 56 | 1013.0 |
| 20260503034306 | 70 | 231 | 0.0 | 1.7 | 0.01 | 0.01 | 0.01 | 56 | 1013.0 |
| 20260503034007 | 70 | 234 | 0.0 | 2.6 | 0.01 | 0.01 | 0.01 | 56 | 1012.9 |
| 20260503033907 | 70 | 128 | 0.0 | 2.6 | 0.01 | 0.01 | 0.01 | 56 | 1012.9 |
| 20260503033807 | 70 | 288 | 0.9 | 1.7 | 0.01 | 0.01 | 0.01 | 56 | 1012.9 |
| 20260503033706 | 70 | 353 | 0.9 | 2.6 | 0.01 | 0.01 | 0.01 | 56 | 1012.9 |
| 20260503033607 | 70 | 283 | 1.7 | 3.5 | 0.01 | 0.01 | 0.01 | 56 | 1012.9 |
| 20260503033507 | 70 | 326 | 0.9 | 1.7 | 0.01 | 0.01 | 0.01 | 56 | 1012.9 |
| 20260503033407 | 70 | 356 | 0.9 | 1.7 | 0.01 | 0.01 | 0.01 | 57 | 1012.8 |
| 20260503033107 | 70 | 255 | 0.0 | 0.9 | 0.01 | 0.01 | 0.01 | 57 | 1012.8 |
| 20260503033007 | 70 | 298 | 0.0 | 0.9 | 0.01 | 0.01 | 0.01 | 57 | 1012.8 |
| 20260503032707 | 71 | 280 | 0.0 | 0.9 | 0.01 | 0.01 | 0.01 | 57 | 1012.8 |
| 20260503032607 | 71 | 323 | 0.9 | 2.6 | 0.01 | 0.01 | 0.01 | 57 | 1012.8 |
| 20260503032507 | 71 | 341 | 0.9 | 1.7 | 0.01 | 0.01 | 0.01 | 57 | 1012.7 |
| 20260503032107 | 71 | 282 | 0.9 | 1.7 | 0.01 | 0.01 | 0.01 | 57 | 1012.7 |
| 20260503032007 | 71 | 280 | 0.9 | 2.6 | 0.01 | 0.01 | 0.01 | 57 | 1012.7 |
| 20260503031907 | 71 | 325 | 0.0 | 1.7 | 0.01 | 0.01 | 0.01 | 57 | 1012.7 |
| 20260503031407 | 71 | 8 | 0.9 | 1.7 | 0.01 | 0.01 | 0.01 | 57 | 1012.7 |
| 20260503031307 | 71 | 302 | 0.0 | 0.9 | 0.01 | 0.01 | 0.01 | 57 | 1012.6 |
| 20260503031207 | 71 | 280 | 0.0 | 1.7 | 0.01 | 0.01 | 0.01 | 57 | 1012.6 |
| 20260503031107 | 71 | 336 | 0.9 | 1.7 | 0.01 | 0.01 | 0.01 | 57 | 1012.6 |
| 20260503031007 | 72 | 0 | 0.0 | 0.0 | 0.01 | 0.01 | 0.01 | 57 | 1012.6 |
| 20260503030707 | 72 | 317 | 0.0 | 0.9 | 0.01 | 0.01 | 0.01 | 56 | 1012.6 |
| 20260503030607 | 72 | 0 | 0.0 | 0.0 | 0.01 | 0.01 | 0.01 | 57 | 1012.6 |
| 20260503030507 | 72 | 0 | 0.0 | 0.0 | 0.01 | 0.01 | 0.01 | 57 | 1012.6 |
| 20260503030407 | 72 | 0 | 0.0 | 0.0 | 0.01 | 0.01 | 0.01 | 56 | 1012.5 |
| 20260503030307 | 72 | 270 | 0.0 | 1.7 | 0.01 | 0.01 | 0.01 | 56 | 1012.5 |
| 20260503030207 | 72 | 0 | 0.0 | 0.0 | 0.01 | 0.01 | 0.01 | 56 | 1012.5 |
| 20260503030107 | 72 | 333 | 0.0 | 0.9 | 0.00 | 0.00 | 0.01 | 56 | 1012.5 |
| 20260503030007 | 72 | 0 | 0.0 | 0.0 | 0.00 | 0.00 | 0.00 | 56 | 1012.5 |
| 20260503025908 | 72 | 276 | 0.0 | 0.9 | 0.00 | 0.00 | 0.00 | 55 | 1012.4 |
| 20260503025807 | 73 | 0 | 0.0 | 0.0 | 0.00 | 0.00 | 0.00 | 56 | 1012.4 |
| 20260503025707 | 73 | 0 | 0.0 | 0.0 | 0.00 | 0.00 | 0.00 | 55 | 1012.4 |
| 20260503025607 | 73 | 0 | 0.0 | 0.0 | 0.00 | 0.00 | 0.00 | 55 | 1012.4 |
| 20260503025507 | 73 | 0 | 0.0 | 0.0 | 0.00 | 0.00 | 0.00 | 54 | 1012.4 |
| 20260503025408 | 73 | 0 | 0.0 | 0.0 | 0.00 | 0.00 | 0.00 | 55 | 1012.4 |
| 20260503025307 | 73 | 284 | 0.0 | 0.9 | 0.00 | 0.00 | 0.00 | 55 | 1012.4 |
| 20260503025208 | 73 | 272 | 0.0 | 0.9 | 0.00 | 0.00 | 0.00 | 54 | 1012.3 |
| 20260503025107 | 73 | 0 | 0.0 | 0.0 | 0.00 | 0.00 | 0.00 | 54 | 1012.3 |
| 20260503025008 | 73 | 283 | 0.0 | 1.7 | 0.00 | 0.00 | 0.00 | 54 | 1012.3 |
| 20260503024907 | 73 | 260 | 0.0 | 0.9 | 0.00 | 0.00 | 0.00 | 54 | 1012.3 |
| 20260503024808 | 73 | 271 | 0.0 | 0.9 | 0.00 | 0.00 | 0.00 | 54 | 1012.3 |
| 20260503024707 | 73 | 0 | 0.0 | 0.0 | 0.00 | 0.00 | 0.00 | 54 | 1012.3 |
| 20260503024608 | 73 | 205 | 0.0 | 1.7 | 0.00 | 0.00 | 0.00 | 54 | 1012.3 |
| 20260503024508 | 73 | 233 | 0.9 | 1.7 | 0.00 | 0.00 | 0.00 | 54 | 1012.3 |
| 20260503024408 | 73 | 268 | 0.0 | 0.9 | 0.00 | 0.00 | 0.00 | 53 | 1012.3 |
| 20260503024307 | 73 | 323 | 0.0 | 1.7 | 0.00 | 0.00 | 0.00 | 53 | 1012.3 |
| 20260503024208 | 73 | 0 | 0.0 | 0.0 | 0.00 | 0.00 | 0.00 | 53 | 1012.3 |
| 20260503023908 | 74 | 274 | 0.9 | 1.7 | 0.00 | 0.00 | 0.00 | 53 | 1012.3 |
| 20260503023808 | 74 | 73 | 0.0 | 0.0 | 0.00 | 0.00 | 0.00 | 53 | 1012.3 |
| 20260503023708 | 74 | 0 | 0.0 | 0.0 | 0.00 | 0.00 | 0.00 | 52 | 1012.3 |
| 20260503023608 | 74 | 315 | 0.0 | 1.7 | 0.00 | 0.00 | 0.00 | 52 | 1012.3 |
| 20260503023308 | 74 | 280 | 1.7 | 3.5 | 0.00 | 0.00 | 0.00 | 52 | 1012.2 |
| 20260503023008 | 74 | 137 | 0.0 | 0.0 | 0.00 | 0.00 | 0.00 | 52 | 1012.2 |
| 20260503022908 | 74 | 137 | 0.0 | 0.9 | 0.00 | 0.00 | 0.00 | 52 | 1012.2 |
| 20260503022808 | 74 | 265 | 0.0 | 0.9 | 0.00 | 0.00 | 0.00 | 51 | 1012.2 |
| 20260503022708 | 75 | 242 | 0.0 | 1.7 | 0.00 | 0.00 | 0.00 | 51 | 1012.2 |
| 20260503022608 | 75 | 357 | 0.9 | 1.7 | 0.00 | 0.00 | 0.00 | 52 | 1012.1 |
| 20260503022308 | 75 | 344 | 0.9 | 1.7 | 0.00 | 0.00 | 0.00 | 51 | 1012.2 |
| 20260503022208 | 75 | 243 | 0.0 | 2.6 | 0.00 | 0.00 | 0.00 | 51 | 1012.2 |
| 20260503021908 | 75 | 11 | 0.9 | 2.6 | 0.00 | 0.00 | 0.00 | 51 | 1012.1 |
| 20260503021808 | 75 | 358 | 0.0 | 2.6 | 0.00 | 0.00 | 0.00 | 50 | 1012.1 |
| 20260503021708 | 75 | 327 | 0.0 | 0.9 | 0.00 | 0.00 | 0.00 | 50 | 1012.2 |
| 20260503021608 | 76 | 12 | 0.0 | 0.9 | 0.00 | 0.00 | 0.00 | 50 | 1012.2 |
| 20260503021508 | 76 | 311 | 0.9 | 1.7 | 0.00 | 0.00 | 0.00 | 50 | 1012.2 |
| 20260503021408 | 76 | 284 | 0.0 | 1.7 | 0.00 | 0.00 | 0.00 | 50 | 1012.2 |
| 20260503021308 | 76 | 312 | 0.0 | 1.7 | 0.00 | 0.00 | 0.00 | 50 | 1012.2 |
| 20260503021208 | 76 | 304 | 0.0 | 1.7 | 0.00 | 0.00 | 0.00 | 49 | 1012.1 |
| 20260503021108 | 76 | 337 | 0.0 | 1.7 | 0.00 | 0.00 | 0.00 | 49 | 1012.2 |
| 20260503021008 | 76 | 303 | 0.0 | 0.9 | 0.00 | 0.00 | 0.00 | 49 | 1012.1 |
| 20260503020708 | 77 | 257 | 0.0 | 0.0 | 0.00 | 0.00 | 0.00 | 49 | 1012.2 |
| 20260503020608 | 77 | 312 | 0.0 | 1.7 | 0.00 | 0.00 | 0.00 | 49 | 1012.2 |
| 20260503020508 | 77 | 111 | 0.0 | 1.7 | 0.00 | 0.00 | 0.00 | 48 | 1012.2 |
| 20260503020409 | 77 | 330 | 0.9 | 1.7 | 0.00 | 0.00 | 0.00 | 48 | 1012.2 |
| 20260503020308 | 77 | 346 | 0.9 | 2.6 | 0.00 | 0.00 | 0.00 | 48 | 1012.2 |
| 20260503020208 | 77 | 69 | 0.0 | 0.9 | 0.00 | 0.00 | 0.00 | 48 | 1012.2 |
| 20260503015908 | 77 | 323 | 0.0 | 1.7 | 0.00 | 0.00 | 0.00 | 47 | 1012.2 |
| 20260503015808 | 77 | 302 | 0.0 | 0.0 | 0.00 | 0.00 | 0.00 | 47 | 1012.2 |
| 20260503015708 | 77 | 254 | 0.0 | 1.7 | 0.00 | 0.00 | 0.00 | 48 | 1012.2 |
| 20260503015408 | 77 | 287 | 0.0 | 1.7 | 0.00 | 0.00 | 0.00 | 48 | 1012.2 |
| 20260503015309 | 77 | 275 | 0.9 | 2.6 | 0.00 | 0.00 | 0.00 | 47 | 1012.2 |
| 20260503015208 | 78 | 296 | 0.9 | 3.5 | 0.00 | 0.00 | 0.00 | 47 | 1012.2 |
| 20260503015108 | 78 | 0 | 0.0 | 0.0 | 0.00 | 0.00 | 0.00 | 47 | 1012.2 |
| 20260503015009 | 78 | 0 | 0.0 | 0.0 | 0.00 | 0.00 | 0.00 | 47 | 1012.2 |
| 20260503014809 | 78 | 276 | 1.7 | 2.6 | 0.00 | 0.00 | 0.00 | 46 | 1012.2 |
| 20260503014709 | 78 | 339 | 0.0 | 1.7 | 0.00 | 0.00 | 0.00 | 46 | 1012.2 |
| 20260503014609 | 78 | 322 | 0.9 | 2.6 | 0.00 | 0.00 | 0.00 | 47 | 1012.3 |
| 20260503014509 | 78 | 272 | 0.0 | 1.7 | 0.00 | 0.00 | 0.00 | 46 | 1012.2 |
| 20260503014409 | 78 | 270 | 0.0 | 1.7 | 0.00 | 0.00 | 0.00 | 46 | 1012.3 |
| 20260503014309 | 78 | 272 | 0.0 | 0.9 | 0.00 | 0.00 | 0.00 | 46 | 1012.3 |
| 20260503014208 | 78 | 0 | 0.0 | 0.0 | 0.00 | 0.00 | 0.00 | 46 | 1012.2 |
| 20260503014109 | 78 | 346 | 0.0 | 0.9 | 0.00 | 0.00 | 0.00 | 47 | 1012.2 |
| 20260503014009 | 78 | 30 | 0.9 | 1.7 | 0.00 | 0.00 | 0.00 | 46 | 1012.3 |
| 20260503013909 | 78 | 265 | 0.9 | 1.7 | 0.00 | 0.00 | 0.00 | 46 | 1012.2 |
| 20260503013809 | 78 | 304 | 0.9 | 2.6 | 0.00 | 0.00 | 0.00 | 46 | 1012.3 |
| 20260503013709 | 78 | 277 | 0.0 | 3.5 | 0.00 | 0.00 | 0.00 | 46 | 1012.2 |
| 20260503013609 | 79 | 279 | 1.7 | 2.6 | 0.00 | 0.00 | 0.00 | 45 | 1012.3 |
| 20260503013509 | 79 | 0 | 0.0 | 0.0 | 0.00 | 0.00 | 0.00 | 46 | 1012.3 |
| 20260503013409 | 79 | 43 | 0.0 | 2.6 | 0.00 | 0.00 | 0.00 | 47 | 1012.3 |
| 20260503013309 | 79 | 321 | 0.9 | 1.7 | 0.00 | 0.00 | 0.00 | 46 | 1012.3 |
| 20260503013209 | 79 | 1 | 1.7 | 3.5 | 0.00 | 0.00 | 0.00 | 45 | 1012.3 |
| 20260503012909 | 79 | 356 | 0.9 | 2.6 | 0.00 | 0.00 | 0.00 | 46 | 1012.3 |
| 20260503012610 | 78 | 9 | 0.9 | 2.6 | 0.00 | 0.00 | 0.00 | 47 | 1012.3 |
| 20260503012509 | 78 | 11 | 0.0 | 1.7 | 0.00 | 0.00 | 0.00 | 47 | 1012.3 |
| 20260503012409 | 78 | 313 | 0.0 | 2.6 | 0.00 | 0.00 | 0.00 | 46 | 1012.3 |
| 20260503012309 | 78 | 302 | 0.0 | 0.9 | 0.00 | 0.00 | 0.00 | 46 | 1012.3 |
| 20260503012210 | 78 | 320 | 0.9 | 2.6 | 0.00 | 0.00 | 0.00 | 46 | 1012.3 |
| 20260503012109 | 78 | 287 | 0.9 | 1.7 | 0.00 | 0.00 | 0.00 | 46 | 1012.3 |
| 20260503011809 | 78 | 292 | 0.0 | 1.7 | 0.00 | 0.00 | 0.00 | 47 | 1012.3 |
| 20260503011709 | 78 | 290 | 0.9 | 2.6 | 0.00 | 0.00 | 0.00 | 46 | 1012.3 |
| 20260503011609 | 78 | 286 | 0.9 | 2.6 | 0.00 | 0.00 | 0.00 | 47 | 1012.3 |
| 20260503011309 | 78 | 297 | 0.9 | 1.7 | 0.00 | 0.00 | 0.00 | 47 | 1012.3 |
| 20260503011209 | 78 | 275 | 0.9 | 1.7 | 0.00 | 0.00 | 0.00 | 47 | 1012.3 |
| 20260503011109 | 78 | 338 | 0.9 | 2.6 | 0.00 | 0.00 | 0.00 | 47 | 1012.3 |
| 20260503011009 | 78 | 274 | 0.9 | 1.7 | 0.00 | 0.00 | 0.00 | 46 | 1012.3 |
| 20260503010709 | 78 | 317 | 0.9 | 1.7 | 0.00 | 0.00 | 0.00 | 47 | 1012.3 |
| 20260503010609 | 78 | 296 | 0.9 | 2.6 | 0.00 | 0.00 | 0.00 | 47 | 1012.3 |
| 20260503010509 | 78 | 9 | 1.7 | 3.5 | 0.00 | 0.00 | 0.00 | 47 | 1012.3 |
| 20260503010409 | 78 | 322 | 0.0 | 1.7 | 0.00 | 0.00 | 0.00 | 47 | 1012.3 |
| 20260503010110 | 78 | 292 | 0.9 | 1.7 | 0.00 | 0.00 | 0.00 | 47 | 1012.3 |
| 20260503005809 | 78 | 351 | 0.9 | 1.7 | 0.00 | 0.00 | 0.00 | 48 | 1012.3 |
| 20260503005709 | 78 | 40 | 0.0 | 1.7 | 0.00 | 0.00 | 0.00 | 48 | 1012.3 |
| 20260503005609 | 78 | 337 | 0.9 | 3.5 | 0.00 | 0.00 | 0.00 | 48 | 1012.3 |
| 20260503005509 | 78 | 262 | 1.7 | 3.5 | 0.00 | 0.00 | 0.00 | 47 | 1012.3 |
| 20260503005410 | 78 | 322 | 0.0 | 1.7 | 0.00 | 0.00 | 0.00 | 48 | 1012.3 |
| 20260503005309 | 78 | 312 | 0.9 | 1.7 | 0.00 | 0.00 | 0.00 | 47 | 1012.3 |
| 20260503005210 | 78 | 341 | 1.7 | 3.5 | 0.00 | 0.00 | 0.00 | 47 | 1012.3 |
| 20260503005109 | 78 | 315 | 0.9 | 1.7 | 0.00 | 0.00 | 0.00 | 48 | 1012.4 |
| 20260503005009 | 78 | 9 | 0.9 | 2.6 | 0.00 | 0.00 | 0.00 | 48 | 1012.3 |
| 20260503004910 | 77 | 68 | 0.9 | 2.6 | 0.00 | 0.00 | 0.00 | 48 | 1012.3 |
| 20260503004610 | 77 | 283 | 0.9 | 1.7 | 0.00 | 0.00 | 0.00 | 48 | 1012.4 |
| 20260503004510 | 77 | 274 | 1.7 | 2.6 | 0.00 | 0.00 | 0.00 | 48 | 1012.4 |
| 20260503004209 | 77 | 327 | 0.9 | 2.6 | 0.00 | 0.00 | 0.00 | 49 | 1012.4 |
| 20260503004110 | 77 | 314 | 0.0 | 0.9 | 0.00 | 0.00 | 0.00 | 49 | 1012.4 |
| 20260503004010 | 77 | 304 | 0.9 | 2.6 | 0.00 | 0.00 | 0.00 | 49 | 1012.4 |
| 20260503003910 | 77 | 279 | 1.7 | 3.5 | 0.00 | 0.00 | 0.00 | 49 | 1012.4 |
| 20260503003810 | 77 | 266 | 0.9 | 3.5 | 0.00 | 0.00 | 0.00 | 49 | 1012.4 |
| 20260503003710 | 77 | 288 | 1.7 | 3.5 | 0.00 | 0.00 | 0.00 | 49 | 1012.4 |
| 20260503003410 | 77 | 264 | 0.0 | 1.7 | 0.00 | 0.00 | 0.00 | 49 | 1012.4 |
| 20260503003310 | 77 | 261 | 0.0 | 0.9 | 0.00 | 0.00 | 0.00 | 49 | 1012.4 |
| 20260503003210 | 77 | 18 | 0.9 | 2.6 | 0.00 | 0.00 | 0.00 | 49 | 1012.4 |
| 20260503003110 | 77 | 243 | 0.0 | 2.6 | 0.00 | 0.00 | 0.00 | 49 | 1012.4 |
| 20260503003010 | 77 | 278 | 0.9 | 2.6 | 0.00 | 0.00 | 0.00 | 49 | 1012.4 |
| 20260503002910 | 77 | 287 | 0.9 | 2.6 | 0.00 | 0.00 | 0.00 | 49 | 1012.4 |
| 20260503002810 | 77 | 334 | 0.0 | 1.7 | 0.00 | 0.00 | 0.00 | 49 | 1012.4 |
| 20260503002710 | 77 | 269 | 1.7 | 4.3 | 0.00 | 0.00 | 0.00 | 49 | 1012.4 |
| 20260503002610 | 77 | 266 | 0.9 | 2.6 | 0.00 | 0.00 | 0.00 | 48 | 1012.4 |
| 20260503002510 | 77 | 306 | 0.9 | 3.5 | 0.00 | 0.00 | 0.00 | 49 | 1012.4 |
| 20260503002410 | 77 | 302 | 0.0 | 0.9 | 0.00 | 0.00 | 0.00 | 49 | 1012.4 |
| 20260503002310 | 77 | 300 | 0.9 | 2.6 | 0.00 | 0.00 | 0.00 | 49 | 1012.4 |
| 20260503002210 | 77 | 280 | 0.9 | 1.7 | 0.00 | 0.00 | 0.00 | 49 | 1012.4 |
| 20260503002110 | 77 | 310 | 0.9 | 2.6 | 0.00 | 0.00 | 0.00 | 49 | 1012.4 |
| 20260503001810 | 77 | 318 | 0.9 | 3.5 | 0.00 | 0.00 | 0.00 | 49 | 1012.4 |
| 20260503001510 | 77 | 245 | 0.0 | 0.9 | 0.00 | 0.00 | 0.00 | 50 | 1012.4 |
| 20260503001410 | 77 | 276 | 0.9 | 2.6 | 0.00 | 0.00 | 0.00 | 49 | 1012.4 |
| 20260503001310 | 77 | 288 | 0.9 | 2.6 | 0.00 | 0.00 | 0.00 | 50 | 1012.4 |
| 20260503001210 | 77 | 3 | 1.7 | 3.5 | 0.00 | 0.00 | 0.00 | 49 | 1012.4 |
| 20260503001110 | 77 | 292 | 2.6 | 4.3 | 0.00 | 0.00 | 0.00 | 49 | 1012.5 |
| 20260503001010 | 77 | 306 | 2.6 | 4.3 | 0.00 | 0.00 | 0.00 | 49 | 1012.4 |
| 20260503000910 | 77 | 269 | 0.9 | 2.6 | 0.00 | 0.00 | 0.00 | 49 | 1012.4 |
| 20260503000810 | 77 | 234 | 1.7 | 2.6 | 0.00 | 0.00 | 0.00 | 49 | 1012.5 |
| 20260503000710 | 77 | 291 | 0.9 | 2.6 | 0.00 | 0.00 | 0.00 | 49 | 1012.4 |
| 20260503000610 | 77 | 304 | 0.9 | 2.6 | 0.00 | 0.00 | 0.00 | 49 | 1012.4 |
| 20260503000510 | 77 | 2 | 0.0 | 0.9 | 0.00 | 0.00 | 0.00 | 51 | 1012.4 |
| 20260503000211 | 77 | 245 | 0.0 | 0.9 | 0.00 | 0.00 | 0.00 | 50 | 1012.5 |
| 20260502235910 | 77 | 234 | 0.9 | 3.5 | 0.00 | 0.00 | 0.00 | 50 | 1012.5 |
| 20260502235810 | 77 | 266 | 1.7 | 2.6 | 0.00 | 0.00 | 0.00 | 50 | 1012.6 |
| 20260502235711 | 77 | 261 | 1.7 | 2.6 | 0.00 | 0.00 | 0.00 | 50 | 1012.6 |
| 20260502235610 | 77 | 274 | 0.9 | 2.6 | 0.00 | 0.00 | 0.00 | 50 | 1012.6 |
| 20260502235410 | 77 | 351 | 1.7 | 3.5 | 0.00 | 0.00 | 0.00 | 50 | 1012.6 |
| 20260502235311 | 77 | 273 | 1.7 | 3.5 | 0.00 | 0.00 | 0.00 | 50 | 1012.6 |
| 20260502235010 | 77 | 0 | 0.0 | 0.0 | 0.00 | 0.00 | 0.00 | 50 | 1012.6 |
| 20260502234710 | 77 | 8 | 1.7 | 3.5 | 0.00 | 0.00 | 0.00 | 50 | 1012.6 |
| 20260502234610 | 77 | 347 | 0.9 | 2.6 | 0.00 | 0.00 | 0.00 | 49 | 1012.6 |
| 20260502234511 | 77 | 262 | 0.9 | 3.5 | 0.00 | 0.00 | 0.00 | 49 | 1012.6 |
| 20260502234410 | 77 | 351 | 0.0 | 1.7 | 0.00 | 0.00 | 0.00 | 49 | 1012.6 |
| 20260502234111 | 77 | 268 | 0.9 | 2.6 | 0.00 | 0.00 | 0.00 | 50 | 1012.7 |
| 20260502234011 | 77 | 316 | 0.0 | 0.9 | 0.00 | 0.00 | 0.00 | 50 | 1012.7 |
| 20260502233712 | 77 | 322 | 2.6 | 3.5 | 0.00 | 0.00 | 0.00 | 50 | 1012.7 |
| 20260502233611 | 77 | 259 | 0.9 | 2.6 | 0.00 | 0.00 | 0.00 | 50 | 1012.7 |
| 20260502233511 | 77 | 290 | 0.9 | 2.6 | 0.00 | 0.00 | 0.00 | 49 | 1012.8 |
| 20260502233412 | 76 | 358 | 1.7 | 2.6 | 0.00 | 0.00 | 0.00 | 50 | 1012.8 |
| 20260502233311 | 76 | 6 | 0.9 | 2.6 | 0.00 | 0.00 | 0.00 | 50 | 1012.8 |
| 20260502233211 | 76 | 0 | 0.0 | 0.0 | 0.00 | 0.00 | 0.00 | 50 | 1012.8 |
| 20260502233111 | 76 | 323 | 0.9 | 2.6 | 0.00 | 0.00 | 0.00 | 50 | 1012.8 |
| 20260502233011 | 76 | 281 | 1.7 | 3.5 | 0.00 | 0.00 | 0.00 | 50 | 1012.8 |
| 20260502232711 | 76 | 269 | 1.7 | 3.5 | 0.00 | 0.00 | 0.00 | 50 | 1012.9 |
| 20260502232611 | 76 | 309 | 1.7 | 3.5 | 0.00 | 0.00 | 0.00 | 50 | 1012.9 |
| 20260502232511 | 76 | 324 | 0.9 | 1.7 | 0.00 | 0.00 | 0.00 | 50 | 1012.9 |
| 20260502232211 | 76 | 283 | 0.9 | 3.5 | 0.00 | 0.00 | 0.00 | 50 | 1013.0 |
| 20260502231911 | 76 | 307 | 0.9 | 2.6 | 0.00 | 0.00 | 0.00 | 50 | 1013.0 |
| 20260502231811 | 76 | 289 | 1.7 | 4.3 | 0.00 | 0.00 | 0.00 | 50 | 1013.0 |
| 20260502231711 | 77 | 273 | 2.6 | 4.3 | 0.00 | 0.00 | 0.00 | 50 | 1013.0 |
| 20260502231611 | 77 | 276 | 0.9 | 2.6 | 0.00 | 0.00 | 0.00 | 50 | 1013.1 |
| 20260502231511 | 76 | 258 | 0.9 | 1.7 | 0.00 | 0.00 | 0.00 | 50 | 1013.1 |
| 20260502231411 | 76 | 230 | 1.7 | 3.5 | 0.00 | 0.00 | 0.00 | 50 | 1013.1 |
| 20260502231311 | 76 | 13 | 0.9 | 1.7 | 0.00 | 0.00 | 0.00 | 50 | 1013.1 |
| 20260502231211 | 76 | 330 | 1.7 | 6.1 | 0.00 | 0.00 | 0.00 | 50 | 1013.1 |
| 20260502231111 | 76 | 244 | 0.9 | 2.6 | 0.00 | 0.00 | 0.00 | 50 | 1013.1 |
| 20260502231011 | 76 | 287 | 0.9 | 2.6 | 0.00 | 0.00 | 0.00 | 51 | 1013.1 |
| 20260502230912 | 76 | 77 | 1.7 | 5.2 | 0.00 | 0.00 | 0.00 | 51 | 1013.1 |
| 20260502230811 | 76 | 306 | 1.7 | 3.5 | 0.00 | 0.00 | 0.00 | 50 | 1013.1 |
| 20260502230712 | 76 | 21 | 0.9 | 3.5 | 0.00 | 0.00 | 0.00 | 51 | 1013.1 |
| 20260502230611 | 76 | 14 | 0.9 | 1.7 | 0.00 | 0.00 | 0.00 | 50 | 1013.1 |
| 20260502230511 | 76 | 3 | 0.9 | 3.5 | 0.00 | 0.00 | 0.00 | 50 | 1013.1 |
| 20260502230411 | 76 | 276 | 1.7 | 3.5 | 0.00 | 0.00 | 0.00 | 51 | 1013.1 |
| 20260502230311 | 76 | 13 | 0.9 | 3.5 | 0.00 | 0.00 | 0.00 | 50 | 1013.1 |
| 20260502230211 | 76 | 311 | 0.9 | 2.6 | 0.00 | 0.00 | 0.00 | 51 | 1013.2 |
| 20260502230112 | 76 | 271 | 0.9 | 2.6 | 0.00 | 0.00 | 0.00 | 51 | 1013.1 |
| 20260502230012 | 76 | 237 | 1.7 | 3.5 | 0.00 | 0.00 | 0.00 | 51 | 1013.2 |
| 20260502225711 | 76 | 244 | 1.7 | 3.5 | 0.00 | 0.00 | 0.00 | 51 | 1013.2 |
| 20260502225611 | 76 | 319 | 1.7 | 3.5 | 0.00 | 0.00 | 0.00 | 51 | 1013.3 |
| 20260502225512 | 76 | 284 | 1.7 | 2.6 | 0.00 | 0.00 | 0.00 | 51 | 1013.3 |
| 20260502225411 | 76 | 39 | 1.7 | 3.5 | 0.00 | 0.00 | 0.00 | 50 | 1013.3 |
| 20260502225311 | 76 | 333 | 2.6 | 5.2 | 0.00 | 0.00 | 0.00 | 50 | 1013.3 |
| 20260502225212 | 76 | 337 | 0.0 | 1.7 | 0.00 | 0.00 | 0.00 | 51 | 1013.4 |
| 20260502225112 | 76 | 350 | 0.0 | 1.7 | 0.00 | 0.00 | 0.00 | 51 | 1013.3 |
| 20260502225012 | 76 | 343 | 0.9 | 1.7 | 0.00 | 0.00 | 0.00 | 50 | 1013.3 |
| 20260502224912 | 76 | 279 | 0.0 | 1.7 | 0.00 | 0.00 | 0.00 | 50 | 1013.4 |
| 20260502224812 | 76 | 323 | 0.9 | 2.6 | 0.00 | 0.00 | 0.00 | 51 | 1013.4 |
| 20260502224711 | 76 | 308 | 1.7 | 4.3 | 0.00 | 0.00 | 0.00 | 51 | 1013.4 |
| 20260502224612 | 76 | 268 | 1.7 | 3.5 | 0.00 | 0.00 | 0.00 | 51 | 1013.4 |
| 20260502224512 | 76 | 304 | 1.7 | 2.6 | 0.00 | 0.00 | 0.00 | 51 | 1013.4 |
| 20260502224412 | 76 | 164 | 0.9 | 3.5 | 0.00 | 0.00 | 0.00 | 50 | 1013.4 |
| 20260502224312 | 76 | 338 | 1.7 | 5.2 | 0.00 | 0.00 | 0.00 | 50 | 1013.3 |
| 20260502224212 | 76 | 286 | 0.9 | 2.6 | 0.00 | 0.00 | 0.00 | 50 | 1013.4 |
| 20260502224112 | 76 | 49 | 0.9 | 4.3 | 0.00 | 0.00 | 0.00 | 50 | 1013.4 |
| 20260502223812 | 76 | 201 | 0.9 | 1.7 | 0.00 | 0.00 | 0.00 | 49 | 1013.4 |
| 20260502223712 | 76 | 333 | 0.9 | 1.7 | 0.00 | 0.00 | 0.00 | 50 | 1013.4 |
| 20260502223612 | 76 | 291 | 0.9 | 2.6 | 0.00 | 0.00 | 0.00 | 50 | 1013.5 |
| 20260502223512 | 76 | 309 | 1.7 | 5.2 | 0.00 | 0.00 | 0.00 | 50 | 1013.5 |
| 20260502223412 | 76 | 292 | 0.9 | 2.6 | 0.00 | 0.00 | 0.00 | 49 | 1013.4 |
| 20260502223312 | 76 | 229 | 2.6 | 4.3 | 0.00 | 0.00 | 0.00 | 49 | 1013.5 |
| 20260502223212 | 76 | 227 | 1.7 | 3.5 | 0.00 | 0.00 | 0.00 | 49 | 1013.5 |
| 20260502223112 | 76 | 295 | 0.9 | 2.6 | 0.00 | 0.00 | 0.00 | 49 | 1013.5 |
| 20260502223012 | 76 | 226 | 0.9 | 2.6 | 0.00 | 0.00 | 0.00 | 50 | 1013.5 |
| 20260502222712 | 76 | 226 | 0.9 | 3.5 | 0.00 | 0.00 | 0.00 | 50 | 1013.5 |
| 20260502222612 | 76 | 336 | 1.7 | 5.2 | 0.00 | 0.00 | 0.00 | 50 | 1013.6 |
| 20260502222512 | 76 | 341 | 0.9 | 1.7 | 0.00 | 0.00 | 0.00 | 50 | 1013.6 |
| 20260502222412 | 76 | 222 | 1.7 | 4.3 | 0.00 | 0.00 | 0.00 | 50 | 1013.6 |
| 20260502222312 | 76 | 229 | 1.7 | 4.3 | 0.00 | 0.00 | 0.00 | 49 | 1013.6 |
| 20260502222212 | 75 | 243 | 0.9 | 3.5 | 0.00 | 0.00 | 0.00 | 50 | 1013.6 |
| 20260502222112 | 75 | 15 | 0.9 | 2.6 | 0.00 | 0.00 | 0.00 | 50 | 1013.6 |
| 20260502222012 | 75 | 7 | 0.9 | 2.6 | 0.00 | 0.00 | 0.00 | 50 | 1013.6 |
| 20260502221912 | 75 | 300 | 0.9 | 2.6 | 0.00 | 0.00 | 0.00 | 51 | 1013.7 |
| 20260502221712 | 75 | 256 | 0.9 | 3.5 | 0.00 | 0.00 | 0.00 | 50 | 1013.6 |
| 20260502221412 | 75 | 301 | 1.7 | 5.2 | 0.00 | 0.00 | 0.00 | 51 | 1013.7 |
| 20260502221312 | 75 | 263 | 3.5 | 4.3 | 0.00 | 0.00 | 0.00 | 51 | 1013.6 |
| 20260502221012 | 75 | 332 | 0.9 | 2.6 | 0.00 | 0.00 | 0.00 | 51 | 1013.7 |
| 20260502220912 | 75 | 354 | 0.9 | 2.6 | 0.00 | 0.00 | 0.00 | 51 | 1013.7 |
| 20260502220812 | 75 | 273 | 0.9 | 2.6 | 0.00 | 0.00 | 0.00 | 51 | 1013.7 |
| 20260502220712 | 75 | 17 | 0.9 | 2.6 | 0.00 | 0.00 | 0.00 | 51 | 1013.7 |
| 20260502220612 | 75 | 343 | 1.7 | 3.5 | 0.00 | 0.00 | 0.00 | 51 | 1013.7 |
| 20260502220513 | 75 | 331 | 0.0 | 1.7 | 0.00 | 0.00 | 0.00 | 52 | 1013.7 |
| 20260502220412 | 75 | 321 | 1.7 | 2.6 | 0.00 | 0.00 | 0.00 | 51 | 1013.7 |
| 20260502220312 | 75 | 9 | 1.7 | 4.3 | 0.00 | 0.00 | 0.00 | 51 | 1013.7 |
| 20260502220012 | 75 | 278 | 0.9 | 2.6 | 0.00 | 0.00 | 0.00 | 51 | 1013.8 |
| 20260502215913 | 74 | 303 | 1.7 | 3.5 | 0.00 | 0.00 | 0.00 | 51 | 1013.8 |
| 20260502215813 | 74 | 11 | 1.7 | 5.2 | 0.00 | 0.00 | 0.00 | 51 | 1013.8 |
| 20260502215713 | 74 | 74 | 1.7 | 3.5 | 0.00 | 0.00 | 0.00 | 52 | 1013.8 |
| 20260502215612 | 74 | 332 | 0.9 | 2.6 | 0.00 | 0.00 | 0.00 | 52 | 1013.8 |
| 20260502215513 | 74 | 61 | 0.0 | 0.9 | 0.00 | 0.00 | 0.00 | 52 | 1013.8 |
| 20260502215412 | 74 | 23 | 1.7 | 3.5 | 0.00 | 0.00 | 0.00 | 52 | 1013.8 |
| 20260502215113 | 74 | 280 | 1.7 | 3.5 | 0.00 | 0.00 | 0.00 | 51 | 1013.9 |
| 20260502215012 | 74 | 277 | 0.0 | 2.6 | 0.00 | 0.00 | 0.00 | 51 | 1013.9 |
| 20260502214913 | 74 | 264 | 0.9 | 2.6 | 0.00 | 0.00 | 0.00 | 51 | 1013.9 |
| 20260502214613 | 74 | 276 | 1.7 | 3.5 | 0.00 | 0.00 | 0.00 | 51 | 1013.9 |
| 20260502214513 | 74 | 251 | 1.7 | 4.3 | 0.00 | 0.00 | 0.00 | 51 | 1013.9 |
| 20260502214413 | 74 | 247 | 1.7 | 4.3 | 0.00 | 0.00 | 0.00 | 51 | 1013.9 |
| 20260502214313 | 74 | 224 | 1.7 | 4.3 | 0.00 | 0.00 | 0.00 | 52 | 1013.9 |
| 20260502214213 | 74 | 215 | 2.6 | 4.3 | 0.00 | 0.00 | 0.00 | 52 | 1013.9 |
| 20260502214113 | 74 | 216 | 3.5 | 6.1 | 0.00 | 0.00 | 0.00 | 52 | 1013.9 |
| 20260502214013 | 74 | 213 | 2.6 | 3.5 | 0.00 | 0.00 | 0.00 | 51 | 1013.9 |
| 20260502213913 | 74 | 229 | 2.6 | 4.3 | 0.00 | 0.00 | 0.00 | 51 | 1013.9 |
| 20260502213813 | 74 | 287 | 1.7 | 4.3 | 0.00 | 0.00 | 0.00 | 52 | 1014.0 |
| 20260502213713 | 74 | 252 | 1.7 | 4.3 | 0.00 | 0.00 | 0.00 | 52 | 1013.9 |
| 20260502213613 | 73 | 239 | 2.6 | 4.3 | 0.00 | 0.00 | 0.00 | 52 | 1014.0 |
| 20260502213513 | 73 | 220 | 3.5 | 5.2 | 0.00 | 0.00 | 0.00 | 52 | 1014.0 |
| 20260502213413 | 73 | 234 | 2.6 | 3.5 | 0.00 | 0.00 | 0.00 | 52 | 1014.0 |
| 20260502213313 | 73 | 222 | 1.7 | 2.6 | 0.00 | 0.00 | 0.00 | 52 | 1014.0 |
| 20260502213213 | 73 | 260 | 0.9 | 1.7 | 0.00 | 0.00 | 0.00 | 51 | 1014.0 |
| 20260502212713 | 73 | 262 | 0.0 | 1.7 | 0.00 | 0.00 | 0.00 | 52 | 1014.2 |
| 20260502212213 | 73 | 255 | 0.9 | 2.6 | 0.00 | 0.00 | 0.00 | 53 | 1014.2 |
| 20260502211913 | 73 | 347 | 0.9 | 3.5 | 0.00 | 0.00 | 0.00 | 53 | 1014.2 |
| 20260502211813 | 73 | 5 | 0.9 | 3.5 | 0.00 | 0.00 | 0.00 | 53 | 1014.2 |
| 20260502211713 | 73 | 0 | 0.0 | 0.0 | 0.00 | 0.00 | 0.00 | 53 | 1014.2 |
| 20260502211613 | 73 | 293 | 0.0 | 1.7 | 0.00 | 0.00 | 0.00 | 52 | 1014.2 |
| 20260502211513 | 73 | 302 | 0.9 | 1.7 | 0.00 | 0.00 | 0.00 | 53 | 1014.2 |
| 20260502211413 | 73 | 318 | 0.9 | 2.6 | 0.00 | 0.00 | 0.00 | 53 | 1014.2 |
| 20260502211314 | 73 | 123 | 0.9 | 5.2 | 0.00 | 0.00 | 0.00 | 53 | 1014.2 |
| 20260502211213 | 73 | 25 | 0.9 | 3.5 | 0.00 | 0.00 | 0.00 | 54 | 1014.2 |
| 20260502211113 | 73 | 273 | 1.7 | 3.5 | 0.00 | 0.00 | 0.00 | 54 | 1014.2 |
| 20260502211013 | 73 | 305 | 0.9 | 2.6 | 0.00 | 0.00 | 0.00 | 54 | 1014.2 |
| 20260502210913 | 73 | 16 | 1.7 | 4.3 | 0.00 | 0.00 | 0.00 | 53 | 1014.2 |
| 20260502210813 | 73 | 1 | 0.9 | 3.5 | 0.00 | 0.00 | 0.00 | 53 | 1014.2 |
| 20260502210713 | 73 | 349 | 1.7 | 5.2 | 0.00 | 0.00 | 0.00 | 53 | 1014.3 |
| 20260502210614 | 73 | 314 | 0.9 | 2.6 | 0.00 | 0.00 | 0.00 | 53 | 1014.3 |
| 20260502210114 | 72 | 256 | 0.9 | 3.5 | 0.00 | 0.00 | 0.00 | 53 | 1014.3 |
| 20260502210013 | 72 | 20 | 0.9 | 2.6 | 0.00 | 0.00 | 0.00 | 53 | 1014.3 |
| 20260502205914 | 72 | 293 | 0.9 | 1.7 | 0.00 | 0.00 | 0.00 | 54 | 1014.3 |
| 20260502205814 | 72 | 13 | 1.7 | 3.5 | 0.00 | 0.00 | 0.00 | 54 | 1014.3 |
| 20260502205714 | 72 | 309 | 0.9 | 2.6 | 0.00 | 0.00 | 0.00 | 53 | 1014.4 |
| 20260502205614 | 72 | 326 | 1.7 | 5.2 | 0.00 | 0.00 | 0.00 | 54 | 1014.3 |
| 20260502205514 | 72 | 330 | 1.7 | 3.5 | 0.00 | 0.00 | 0.00 | 55 | 1014.4 |
| 20260502205414 | 72 | 218 | 1.7 | 2.6 | 0.00 | 0.00 | 0.00 | 55 | 1014.3 |
| 20260502205314 | 72 | 18 | 0.0 | 1.7 | 0.00 | 0.00 | 0.00 | 56 | 1014.3 |
| 20260502205214 | 72 | 11 | 0.0 | 0.9 | 0.00 | 0.00 | 0.00 | 56 | 1014.4 |
| 20260502205114 | 72 | 110 | 0.0 | 0.9 | 0.00 | 0.00 | 0.00 | 56 | 1014.4 |
| 20260502205014 | 72 | 223 | 0.0 | 0.0 | 0.00 | 0.00 | 0.00 | 56 | 1014.4 |
| 20260502204714 | 71 | 321 | 0.9 | 1.7 | 0.00 | 0.00 | 0.00 | 56 | 1014.4 |
| 20260502204414 | 71 | 306 | 1.7 | 2.6 | 0.00 | 0.00 | 0.00 | 56 | 1014.4 |
| 20260502204314 | 71 | 288 | 0.9 | 2.6 | 0.00 | 0.00 | 0.00 | 56 | 1014.4 |
| 20260502204214 | 71 | 315 | 0.9 | 1.7 | 0.00 | 0.00 | 0.00 | 56 | 1014.5 |
| 20260502204114 | 71 | 221 | 0.9 | 1.7 | 0.00 | 0.00 | 0.00 | 56 | 1014.5 |